TimeCST,TemperatureF,Dew PointF,Humidity,Sea Level PressureIn,VisibilityMPH,Wind Direction,Wind SpeedMPH,Gust SpeedMPH,PrecipitationIn,Events,Conditions,WindDirDegrees,DateUTC
12:15 AM,12.2,8.6,85,29.97,10.0,West,6.9,-,N/A,,Clear,260,2013-02-23 06:15:00
12:35 AM,12.2,8.6,85,29.96,10.0,West,5.8,-,N/A,,Clear,260,2013-02-23 06:35:00
12:55 AM,10.4,6.8,85,29.96,10.0,WSW,8.1,-,N/A,,Clear,250,2013-02-23 06:55:00
1:15 AM,12.2,8.6,85,29.96,10.0,WSW,9.2,-,N/A,,Clear,250,2013-02-23 07:15:00
1:35 AM,10.4,8.6,92,29.96,10.0,WSW,6.9,-,N/A,,Clear,250,2013-02-23 07:35:00
1:55 AM,10.4,6.8,85,29.96,10.0,WSW,5.8,-,N/A,,Clear,250,2013-02-23 07:55:00
2:15 AM,8.6,6.8,92,29.96,10.0,West,4.6,-,N/A,,Clear,260,2013-02-23 08:15:00
2:35 AM,8.6,5.0,85,29.96,10.0,WSW,4.6,-,N/A,,Clear,240,2013-02-23 08:35:00
2:55 AM,8.6,5.0,85,29.95,10.0,WSW,3.5,-,N/A,,Clear,240,2013-02-23 08:55:00
3:15 AM,8.6,6.8,92,29.94,10.0,WSW,4.6,-,N/A,,Clear,240,2013-02-23 09:15:00
3:35 AM,8.6,5.0,85,29.94,10.0,WSW,3.5,-,N/A,,Clear,240,2013-02-23 09:35:00
3:55 AM,6.8,3.2,85,29.93,10.0,WSW,4.6,-,N/A,,Clear,240,2013-02-23 09:55:00
4:15 AM,6.8,3.2,85,29.94,10.0,Calm,Calm,-,N/A,,Clear,0,2013-02-23 10:15:00
4:35 AM,6.8,3.2,85,29.93,10.0,Calm,Calm,-,N/A,,Clear,0,2013-02-23 10:35:00
4:55 AM,5.0,1.4,85,29.94,7.0,Calm,Calm,-,N/A,,Clear,0,2013-02-23 10:55:00
5:15 AM,3.2,1.4,92,29.93,7.0,Calm,Calm,-,N/A,,Clear,0,2013-02-23 11:15:00
5:35 AM,3.2,1.4,92,29.93,7.0,Calm,Calm,-,N/A,,Clear,0,2013-02-23 11:35:00
5:55 AM,3.2,1.4,92,29.94,7.0,Calm,Calm,-,N/A,,Clear,0,2013-02-23 11:55:00
6:15 AM,1.4,-2.2,85,29.93,10.0,Calm,Calm,-,N/A,,Clear,0,2013-02-23 12:15:00
6:35 AM,3.2,-0.4,85,29.93,7.0,Calm,Calm,-,N/A,,Clear,0,2013-02-23 12:35:00
6:55 AM,-2.2,-7.6,78,29.93,7.0,Calm,Calm,-,N/A,,Clear,0,2013-02-23 12:55:00
7:15 AM,-0.4,-5.8,78,29.93,7.0,Calm,Calm,-,N/A,,Clear,0,2013-02-23 13:15:00
7:35 AM,-0.4,-5.8,78,29.93,7.0,Calm,Calm,-,N/A,,Clear,0,2013-02-23 13:35:00
7:55 AM,-0.4,-4.0,85,29.92,7.0,Calm,Calm,-,N/A,,Clear,0,2013-02-23 13:55:00
8:15 AM,1.4,-2.2,85,29.92,5.0,Calm,Calm,-,N/A,,Clear,0,2013-02-23 14:15:00
8:35 AM,5.0,1.4,85,29.92,4.0,Calm,Calm,-,N/A,,Clear,0,2013-02-23 14:35:00
8:55 AM,6.8,3.2,85,29.92,4.0,Calm,Calm,-,N/A,,Clear,0,2013-02-23 14:55:00
9:15 AM,8.6,6.8,92,29.92,2.0,Calm,Calm,-,N/A,,Clear,0,2013-02-23 15:15:00
9:35 AM,10.4,6.8,85,29.92,5.0,SSE,4.6,-,N/A,,Clear,160,2013-02-23 15:35:00
9:55 AM,12.2,8.6,85,29.92,7.0,SSE,3.5,-,N/A,,Clear,150,2013-02-23 15:55:00
10:15 AM,14.0,10.4,86,29.92,7.0,SSE,3.5,-,N/A,,Clear,160,2013-02-23 16:15:00
10:35 AM,17.6,14.0,86,29.92,7.0,South,4.6,-,N/A,,Clear,170,2013-02-23 16:35:00
10:55 AM,19.4,15.8,86,29.92,10.0,SSW,6.9,-,N/A,,Clear,200,2013-02-23 16:55:00
11:15 AM,21.2,17.6,86,29.91,10.0,SSW,6.9,-,N/A,,Clear,200,2013-02-23 17:15:00
11:35 AM,23.0,17.6,80,29.91,10.0,South,6.9,-,N/A,,Clear,180,2013-02-23 17:35:00
11:55 AM,24.8,17.6,74,29.90,10.0,South,5.8,-,N/A,,Clear,190,2013-02-23 17:55:00
12:15 PM,24.8,17.6,74,29.90,10.0,South,8.1,-,N/A,,Clear,190,2013-02-23 18:15:00
12:35 PM,26.6,19.4,74,29.89,10.0,South,9.2,-,N/A,,Clear,190,2013-02-23 18:35:00
12:55 PM,26.6,19.4,74,29.88,10.0,SSW,10.4,-,N/A,,Clear,200,2013-02-23 18:55:00
1:15 PM,28.4,19.4,69,29.88,10.0,SSW,11.5,-,N/A,,Clear,200,2013-02-23 19:15:00
1:35 PM,28.4,21.2,74,29.88,10.0,SSW,9.2,-,N/A,,Clear,200,2013-02-23 19:35:00
1:55 PM,28.4,21.2,74,29.87,10.0,South,8.1,-,N/A,,Clear,190,2013-02-23 19:55:00
2:15 PM,28.4,21.2,74,29.87,10.0,SSW,12.7,-,N/A,,Clear,200,2013-02-23 20:15:00
2:35 PM,30.2,21.2,69,29.86,10.0,SSW,10.4,-,N/A,,Clear,200,2013-02-23 20:35:00
2:55 PM,30.2,21.2,69,29.86,10.0,SSW,8.1,-,N/A,,Clear,200,2013-02-23 20:55:00
3:15 PM,30.2,21.2,69,29.86,10.0,SSW,11.5,-,N/A,,Clear,200,2013-02-23 21:15:00
3:35 PM,30.2,21.2,69,29.86,10.0,SSW,6.9,-,N/A,,Clear,200,2013-02-23 21:35:00
3:55 PM,30.2,21.2,69,29.86,10.0,SSW,6.9,-,N/A,,Clear,200,2013-02-23 21:55:00
4:15 PM,30.2,21.2,69,29.85,10.0,South,8.1,-,N/A,,Clear,190,2013-02-23 22:15:00
4:35 PM,30.2,21.2,69,29.86,10.0,SSW,5.8,-,N/A,,Clear,200,2013-02-23 22:35:00
4:55 PM,30.2,21.2,69,29.85,10.0,South,5.8,-,N/A,,Clear,190,2013-02-23 22:55:00
5:15 PM,28.4,21.2,74,29.85,10.0,South,5.8,-,N/A,,Clear,170,2013-02-23 23:15:00
5:35 PM,28.4,21.2,74,29.86,10.0,South,3.5,-,N/A,,Clear,180,2013-02-23 23:35:00
5:55 PM,26.6,21.2,80,29.85,10.0,South,5.8,-,N/A,,Clear,180,2013-02-23 23:55:00
6:15 PM,26.6,21.2,80,29.85,10.0,South,5.8,-,N/A,,Clear,190,2013-02-24 00:15:00
6:55 PM,24.8,19.4,80,29.85,10.0,South,3.5,-,N/A,,Clear,190,2013-02-24 00:55:00
7:15 PM,24.8,19.4,80,29.85,10.0,South,4.6,-,N/A,,Clear,170,2013-02-24 01:15:00
7:35 PM,24.8,19.4,80,29.86,10.0,Calm,Calm,-,N/A,,Clear,0,2013-02-24 01:35:00
7:55 PM,21.2,15.8,80,29.86,10.0,Calm,Calm,-,N/A,,Clear,0,2013-02-24 01:55:00
8:15 PM,21.2,17.6,86,29.87,10.0,South,3.5,-,N/A,,Clear,170,2013-02-24 02:15:00
8:35 PM,19.4,15.8,86,29.87,10.0,South,4.6,-,N/A,,Clear,190,2013-02-24 02:35:00
9:15 PM,23.0,19.4,86,29.88,10.0,South,6.9,-,N/A,,Clear,180,2013-02-24 03:15:00
9:35 PM,21.2,17.6,86,29.88,10.0,South,3.5,-,N/A,,Clear,180,2013-02-24 03:35:00
10:15 PM,23.0,19.4,86,29.88,10.0,South,5.8,-,N/A,,Clear,190,2013-02-24 04:15:00
10:35 PM,21.2,17.6,86,29.89,10.0,South,4.6,-,N/A,,Clear,180,2013-02-24 04:35:00
10:55 PM,15.8,12.2,86,29.89,7.0,South,4.6,-,N/A,,Clear,190,2013-02-24 04:55:00
11:15 PM,21.2,17.6,86,29.88,10.0,South,3.5,-,N/A,,Clear,180,2013-02-24 05:15:00
11:35 PM,17.6,14.0,86,29.89,7.0,Calm,Calm,-,N/A,,Clear,0,2013-02-24 05:35:00
11:55 PM,17.6,12.2,79,29.89,7.0,Calm,Calm,-,N/A,,Clear,0,2013-02-24 05:55:00